Regional Weather Roundup
Issued by NWS Northern Indiana

Home | Current Version | Previous Version | Graphics & Text | Print | Product List | Glossary On
Versions: 1 2 3 4 5 6 7 8 9 10 11 12 13 14 15 16 17 18 19 20 21 22 23 24 25 26 27 28 29 30 31 32 33 34 35 36 37 38 39 40 41 42 43 44 45 46 47 48 49 50
000
ASUS43 KIWX 030100
RWRIWX

KIWX WEATHER ROUNDUP
NATIONAL WEATHER SERVICE NORTHERN INDIANA
900 PM EDT TUE SEP 02 2014

NOTE: "FAIR" INDICATES FEW OR NO CLOUDS BELOW 12,000 FEET WITH NO
SIGNIFICANT WEATHER AND/OR OBSTRUCTIONS TO VISIBILITY.

* THESE STATIONS ARE NOT UNDER NWS QUALITY CONTROL. THEY ALSO MAY NOT
  REPORT WEATHER SUCH AS PRECIPITATION OR FOG.

INZ001>027-030200-
NORTHERN INDIANA

CITY           SKY/WX    TMP DP  RH WIND       PRES   REMARKS
GARY*          PTCLDY    70  64  83 SE3       29.91R
VALPARAISO     PTCLDY    69  66  90 CALM      29.92R
KNOX*          PTCLDY    69  64  85 CALM      29.91R
SOUTH BEND     CLEAR     70  61  73 CALM      29.93R
ELKHART*       CLEAR     68  61  77 CALM      29.93
GOSHEN         PTCLDY    68  63  84 CALM      29.93R
MONTICELLO*    MOCLDY    70  68  95 SW3       29.92R
ANGOLA*        CLEAR     66  59  77 CALM      29.94R
FORT WAYNE     MOCLDY    72  69  90 SW3       29.94R
PERU/GRISSOM   MOCLDY    70  70 100 SW3       29.94R

$$
INZ028>050-030200-
CENTRAL INDIANA

CITY           SKY/WX    TMP DP  RH WIND       PRES   REMARKS
LAFAYETTE      MOCLDY    71  69  93 CALM      29.93R
KOKOMO*        MOCLDY    72  64  78 W5        29.94R
MUNCIE*        PTCLDY    71  66  84 SW5       29.96R
INDIANAPOLIS   PTCLDY    72  66  81 SW5       29.96R

$$
MIZ043>046-050>051-056>058-064>065-071>073-077>080-030200-
SOUTHWEST LOWER MICHIGAN

CITY           SKY/WX    TMP DP  RH WIND       PRES   REMARKS
BATTLE CREEK   CLEAR     69  60  73 CALM      29.93R
BENTON HARBOR  CLEAR     66  63  90 CALM      29.91R
COLDWATER*     CLEAR     67  63  85 CALM      29.93R
HILLSDALE*     CLEAR     65  64  96 CALM      29.94R
HOLLAND        CLEAR     69  62  78 CALM      29.91R
GRAND RAPIDS   PTCLDY    71  60  68 W3        29.91R
KALAMAZOO      CLEAR     70  59  68 CALM      29.92R
STURGIS*         N/A     64  63  94 CALM      29.93R
THREE RIVERS*  FAIR      67  60  78 CALM      29.93R

$$
OHZ001>008-015>018-024>025-030200-
NORTHWEST OHIO

CITY           SKY/WX    TMP DP  RH WIND       PRES   REMARKS
DEFIANCE       MOCLDY    69  64  84 CALM      29.93R
FINDLAY        MOCLDY    69  66  90 SW7       29.94R
TOLEDO EXPRESS MOCLDY    68  65  90 CALM      29.92R
TOLEDO METCALF PTCLDY    71  66  84 SE5       29.93R
LIMA           PTCLDY    70  66  87 SE3       29.96R

$$
&&



USA.gov is the U.S. government's official web portal to all federal, state and local government web resources and services.